Noble, IL

12:42 PM CST on January 17, 2017 (GMT -0600)
Olney-Noble

Weather History for KOLY - March, 2013

Change the Weather History Date:

Thursday, March 7, 2013

  Actual Average (KEVV) Record (KEVV)
Temperature  
Mean Temperature 34 °F -  
Max Temperature 37 °F 52 °F 81 °F (1974)
Min Temperature 30 °F 31 °F 4 °F (1899)
Degree Days  
Heating Degree Days 32    
Moisture  
Dew Point 28 °F    
Average Humidity 80    
Maximum Humidity 93    
Minimum Humidity 70    
Precipitation  
Precipitation 0.00 in - - ()
Sea Level Pressure  
Sea Level Pressure 30.38 in    
Wind  
Wind Speed 3 mph (NE)    
Max Wind Speed 7 mph    
Max Gust Speed -    
Visibility 10 miles    
Events      
Averages and records for this station are not official NWS values.
T = Trace of Precipitation, MM = Missing Value Source: NWS Daily Summary

Daily Weather History Graph

Daily Weather History Graph

Search for Another Location

Airport or City:

Trip Planner

Search our weather history database for the weather conditions in past years. The results will help you decide how hot, cold, wet, or windy it might be!

Date:

Astronomy

Mar. 07, 2013 Rise Set
Actual Time 6:15 AM CST 5:52 PM CST
Civil Twilight 5:49 AM CST 6:18 PM CST
Nautical Twilight 5:18 AM CST 6:49 PM CST
Astronomical Twilight 4:47 AM CST 7:20 PM CST
Moon 3:13 AM CST (3/7) 1:41 PM CST (3/7)
Length of Visible Light 12h 29m
Length of Day
11h 36m
Waning Crescent, 20% of the Moon is Illuminated
Mar 7
Waning Crescent
Mar 11
New
Mar 19
First Quarter
Mar 27
Full
Apr 2
Last Quarter

Hourly Weather History & Observations

Time (CST) Temp. Windchill Dew Point Humidity Pressure Visibility Wind Dir Wind Speed Gust Speed Precip Events Conditions
12:15 AM 30.2 °F 24.3 °F 26.6 °F 86% 30.33 in 10.0 mi WNW 5.8 mph - N/A   Overcast
12:35 AM 30.2 °F 25.4 °F 26.6 °F 86% 30.33 in 10.0 mi NW 4.6 mph - N/A   Overcast
12:55 AM 30.2 °F 26.7 °F 26.6 °F 86% 30.34 in 10.0 mi NW 3.5 mph - N/A   Overcast
1:15 AM 30.2 °F - 26.6 °F 86% 30.35 in 10.0 mi Calm Calm - N/A   Overcast
1:35 AM 30.2 °F 24.3 °F 26.6 °F 86% 30.34 in 10.0 mi NW 5.8 mph - N/A   Overcast
1:55 AM 30.2 °F 23.4 °F 26.6 °F 86% 30.34 in 10.0 mi NNW 6.9 mph - N/A   Overcast
2:15 AM 30.2 °F 24.3 °F 26.6 °F 86% 30.34 in 10.0 mi NW 5.8 mph - N/A   Overcast
2:35 AM 30.2 °F 25.4 °F 26.6 °F 86% 30.34 in 10.0 mi NW 4.6 mph - N/A   Overcast
2:55 AM 30.2 °F 25.4 °F 26.6 °F 86% 30.34 in 10.0 mi NW 4.6 mph - N/A   Overcast
3:15 AM 30.2 °F 24.3 °F 26.6 °F 86% 30.35 in 10.0 mi NNW 5.8 mph - N/A   Overcast
3:35 AM 30.2 °F 24.3 °F 26.6 °F 86% 30.35 in 10.0 mi NW 5.8 mph - N/A   Overcast
3:55 AM 30.2 °F 24.3 °F 26.6 °F 86% 30.36 in 10.0 mi NW 5.8 mph - N/A   Overcast
4:15 AM 30.2 °F 25.4 °F 26.6 °F 86% 30.36 in 10.0 mi NW 4.6 mph - N/A   Overcast
4:35 AM 30.2 °F 25.4 °F 26.6 °F 86% 30.36 in 10.0 mi NNW 4.6 mph - N/A   Overcast
4:55 AM 30.2 °F - 26.6 °F 86% 30.36 in 10.0 mi Calm Calm - N/A   Overcast
5:15 AM 30.2 °F 26.7 °F 26.6 °F 86% 30.37 in 10.0 mi NW 3.5 mph - N/A   Overcast
5:35 AM 30.2 °F - 26.6 °F 86% 30.37 in 10.0 mi Calm Calm - N/A   Overcast
5:55 AM 30.2 °F - 26.6 °F 86% 30.37 in 10.0 mi Calm Calm - N/A   Overcast
6:15 AM 30.2 °F - 26.6 °F 86% 30.37 in 10.0 mi Calm Calm - N/A   Overcast
6:35 AM 30.2 °F - 26.6 °F 86% 30.38 in 7.0 mi Calm Calm - N/A   Overcast
6:55 AM 30.2 °F - 26.6 °F 86% 30.39 in 7.0 mi Calm Calm - N/A   Overcast
7:15 AM 30.2 °F - 28.4 °F 93% 30.39 in 7.0 mi Calm Calm - N/A   Overcast
7:35 AM 30.2 °F - 28.4 °F 93% 30.39 in 7.0 mi Calm Calm - N/A   Overcast
7:55 AM 32.0 °F - 28.4 °F 87% 30.39 in 7.0 mi Calm Calm - N/A   Overcast
8:15 AM 32.0 °F - 28.4 °F 87% 30.40 in 7.0 mi Calm Calm - N/A   Overcast
8:35 AM 32.0 °F - 28.4 °F 87% 30.40 in 7.0 mi Calm Calm - N/A   Overcast
8:55 AM 33.8 °F - 28.4 °F 81% 30.42 in 7.0 mi Calm Calm - N/A   Overcast
9:15 AM 33.8 °F - 28.4 °F 81% 30.41 in 7.0 mi Calm Calm - N/A   Overcast
9:35 AM 33.8 °F - 28.4 °F 81% 30.41 in 7.0 mi Calm Calm - N/A   Overcast
9:55 AM 35.6 °F - 28.4 °F 75% 30.40 in 10.0 mi Calm Calm - N/A   Overcast
10:15 AM 35.6 °F - 28.4 °F 75% 30.41 in 10.0 mi Calm Calm - N/A   Overcast
10:35 AM 35.6 °F - 28.4 °F 75% 30.41 in 10.0 mi Calm Calm - N/A   Overcast
10:55 AM 35.6 °F - 28.4 °F 75% 30.42 in 10.0 mi Calm Calm - N/A   Overcast
11:15 AM 35.6 °F - 26.6 °F 70% 30.42 in 10.0 mi Calm Calm - N/A   Overcast
11:35 AM 35.6 °F - 26.6 °F 70% 30.42 in 10.0 mi Calm Calm - N/A   Overcast
11:55 AM 35.6 °F - 26.6 °F 70% 30.41 in 10.0 mi Calm Calm - N/A   Overcast
12:15 PM 35.6 °F - 26.6 °F 70% 30.40 in 10.0 mi Calm Calm - N/A   Overcast
12:35 PM 37.4 °F - 28.4 °F 70% 30.39 in 10.0 mi Calm Calm - N/A   Overcast
12:55 PM 37.4 °F - 28.4 °F 70% - 10.0 mi Calm Calm - N/A   Overcast
1:15 PM 37.4 °F - 28.4 °F 70% 30.37 in 10.0 mi Calm Calm - N/A   Unknown
1:35 PM 37.4 °F - 28.4 °F 70% 30.37 in 10.0 mi Calm Calm - N/A   Overcast
1:55 PM 37.4 °F - 28.4 °F 70% 30.37 in 10.0 mi Calm Calm - N/A   Overcast
2:15 PM 37.4 °F - 28.4 °F 70% 30.37 in 10.0 mi Calm Calm - N/A   Overcast
2:35 PM 37.4 °F - 28.4 °F 70% 30.37 in 10.0 mi Calm Calm - N/A   Overcast
2:55 PM 37.4 °F 34.9 °F 28.4 °F 70% 30.37 in 10.0 mi ESE 3.5 mph - N/A   Overcast
3:15 PM 37.4 °F - 28.4 °F 70% 30.37 in 10.0 mi Calm Calm - N/A   Overcast
3:35 PM 37.4 °F 34.9 °F 28.4 °F 70% 30.37 in 10.0 mi ESE 3.5 mph - N/A   Overcast
3:55 PM 37.4 °F 34.9 °F 28.4 °F 70% 30.37 in 10.0 mi South 3.5 mph - N/A   Overcast
4:15 PM 37.4 °F 34.9 °F 28.4 °F 70% 30.37 in 10.0 mi ENE 3.5 mph - N/A   Overcast
4:35 PM 37.4 °F 34.9 °F 28.4 °F 70% 30.37 in 10.0 mi East 3.5 mph - N/A   Overcast
4:55 PM 37.4 °F 33.8 °F 28.4 °F 70% 30.37 in 10.0 mi East 4.6 mph - N/A   Overcast
5:15 PM 37.4 °F 34.9 °F 28.4 °F 70% 30.38 in 10.0 mi ENE 3.5 mph - N/A   Overcast
5:35 PM 37.4 °F 32.8 °F 28.4 °F 70% 30.38 in 10.0 mi East 5.8 mph - N/A   Overcast
5:55 PM 35.6 °F 32.8 °F 28.4 °F 75% 30.38 in 10.0 mi ENE 3.5 mph - N/A   Overcast
7:35 PM 35.6 °F 32.8 °F 28.4 °F 75% 30.38 in 10.0 mi East 3.5 mph - N/A   Overcast
7:55 PM 35.6 °F - 28.4 °F 75% 30.38 in 10.0 mi Calm Calm - N/A   Overcast
8:15 PM 35.6 °F 32.8 °F 28.4 °F 75% 30.38 in 10.0 mi East 3.5 mph - N/A   Overcast
8:35 PM 35.6 °F 31.7 °F 28.4 °F 75% 30.38 in 10.0 mi ESE 4.6 mph - N/A   Overcast
8:55 PM 35.6 °F 32.8 °F 28.4 °F 75% 30.37 in 10.0 mi East 3.5 mph - N/A   Mostly Cloudy
9:15 PM 33.8 °F 30.8 °F 28.4 °F 81% 30.37 in 10.0 mi East 3.5 mph - N/A   Mostly Cloudy
9:35 PM 33.8 °F 30.8 °F 28.4 °F 81% 30.37 in 10.0 mi ESE 3.5 mph - N/A   Scattered Clouds
9:55 PM 33.8 °F 30.8 °F 28.4 °F 81% 30.38 in 10.0 mi East 3.5 mph - N/A   Clear
10:15 PM 32.0 °F 28.7 °F 28.4 °F 87% 30.38 in 10.0 mi East 3.5 mph - N/A   Clear
10:35 PM 32.0 °F - 26.6 °F 80% 30.38 in 10.0 mi Calm Calm - N/A   Clear
10:55 PM 32.0 °F - 26.6 °F 80% 30.39 in 10.0 mi Calm Calm - N/A   Clear
11:15 PM 30.2 °F - 26.6 °F 86% 30.39 in 10.0 mi Calm Calm - N/A   Clear
11:35 PM 30.2 °F 26.7 °F 28.4 °F 93% 30.39 in 10.0 mi ENE 3.5 mph - N/A   Clear
11:55 PM 30.2 °F 26.7 °F 28.4 °F 93% 30.39 in 10.0 mi ENE 3.5 mph - N/A   Clear